Location: Fours
(44.3167°N, 6.7000°E)
Time: 12:22:45
(UTC+00:00)

Timation 2 Rocket - Visible Passes

Search period start: 29 May 2022 00:00
Search period end: 08 June 2022 00:00
Orbit: 905 x 1075 km, 70.0° (Epoch: 29 May)

Date Brightness Start Highest point End Pass type
(mag) Time Alt. Az. Time Alt. Az. Time Alt. Az.
29 May 5.2 20:49:30 10° NW 20:55:35 39° WSW 21:01:43 10° S visible
30 May 4.2 19:31:55 10° NNW 19:38:34 79° ENE 19:45:25 10° SSE visible
30 May 6.1 21:20:46 10° NW 21:25:20 20° W 21:30:00 10° SW visible
31 May 4.7 20:02:14 10° NW 20:08:43 56° WSW 20:15:22 10° S visible
01 Jun 5.7 20:33:02 10° NW 20:38:36 29° WSW 20:44:17 10° SSW visible
02 Jun 6.5 21:05:02 10° WNW 21:08:14 14° W 21:11:28 10° SW visible
03 Jun 5.3 19:45:36 10° NW 19:51:48 42° WSW 19:58:08 10° S visible
04 Jun 6.3 20:16:46 10° NW 20:21:34 21° W 20:26:26 10° SW visible
07 Jun 6.6 20:00:54 10° WNW 20:04:28 15° W 20:08:03 10° SW visible
